Lapse_Rate
5.9 6.5 6.5 6.5 6.5 6.5 6.5 6.5 6.5 6.5 6.5 6.5 6.5 6.5 6.5 5.2 5.5 5.5 4.6 4.6 4.7 4.5 5.2 3.6 2.0 0.3 -1.3 -2.2 -2.5 -2.2 -2.0 -2.5 -1.8 -2.0 -3.0 -3.6 -4.0 -4.2 -2.8 -1.3 -0.4 0.3 0.6 0.6
6.5 6.5 6.5 6.5 6.5 6.5 6.5 6.5 6.5 6.5 6.5 6.5 6.5 6.5 6.5 6.4 6.3 5.8 4.8 4.6 4.5 4.7 4.8 3.9 1.9 -0.2 -1.6 -1.2 -2.0 -2.1 -2.5 -2.1 -0.8 -0.8 -1.1 -1.0 -1.1 -1.5 -0.6 0.1 0.6 1.1 1.3 1.5
6.5 6.5 6.4 6.5 6.5 6.5 6.5 6.5 6.5 6.5 6.5 6.5 6.5 6.5 6.5 6.5 6.0 5.9 5.3 5.0 4.9 4.3 4.5 4.4 3.5 1.2 -0.6 -1.4 -2.4 -1.8 -2.0 -1.6 -0.5 -0.2 -0.6 -1.3 -1.5 -0.9 -0.0 0.4 0.7 2.1 3.1 3.7
6.5 6.3 6.5 6.5 6.5 6.5 6.5 6.5 6.5 6.5 6.5 6.5 6.5 6.5 6.5 6.5 6.5 6.5 5.9 4.5 4.3 4.4 4.5 3.7 2.7 1.4 0.2 -0.7 -1.7 -1.9 -1.9 -1.0 0.4 0.4 0.2 -0.5 0.7 1.2 1.5 2.0 1.6 2.7 3.9 5.0
6.5 6.5 6.5 6.5 6.5 6.5 6.5 6.5 6.5 6.5 6.5 6.5 6.5 6.5 6.5 6.5 6.5 6.5 6.0 5.1 4.6 4.7 4.1 3.4 3.0 2.0 1.1 -1.0 -2.0 -2.9 -2.0 -0.5 0.2 0.7 0.5 1.0 0.8 1.9 2.3 3.8 2.3 3.6 4.9 5.2
6.5 5.8 6.4 6.5 6.5 6.5 6.5 6.5 6.5 6.5 6.5 6.5 6.5 6.5 6.5 6.5 6.5 6.5 6.2 5.5 5.2 4.8 4.2 3.8 2.6 1.5 0.3 -0.8 -2.1 -2.3 -0.9 -0.2 0.6 0.6 0.5 0.3 1.1 2.2 3.4 3.2 3.0 3.4 3.7 4.9
6.5 6.5 6.5 6.3 6.5 6.5 6.5 6.5 6.5 6.5 6.5 6.5 6.5 6.5 6.5 6.5 6.5 6.5 6.4 5.2 4.9 4.5 3.8 3.4 2.6 1.7 1.1 0.2 -0.8 -0.1 -0.4 -0.2 -0.0 0.0 -0.1 0.6 1.7 3.2 3.8 3.9 3.3 2.9 2.7 3.3
6.5 6.5 6.5 6.5 6.5 6.5 6.5 6.5 6.5 6.5 6.5 6.5 6.5 6.5 6.5 6.5 6.0 6.2 5.5 4.9 5.0 4.7 4.2 3.9 3.7 2.6 1.6 1.2 1.0 -0.2 -0.7 -0.8 -0.7 0.2 0.4 1.5 2.9 3.2 3.5 3.7 3.4 3.2 3.4 4.8
6.5 6.5 6.5 6.5 6.5 6.5 6.5 6.5 6.5 6.5 6.5 6.5 6.5 6.5 6.5 6.5 6.5 6.4 5.8 5.4 5.1 5.2 4.6 4.5 4.3 3.2 2.3 2.0 1.5 0.4 -0.9 -0.8 -0.2 0.5 1.6 2.4 2.5 3.0 4.0 3.6 3.0 3.0 2.0 2.5
6.5 6.5 6.5 6.5 6.3 6.4 6.5 6.5 6.5 6.5 6.5 6.5 6.5 6.5 6.5 6.5 6.5 6.5 6.3 5.6 5.5 5.4 5.0 4.9 4.4 3.9 3.5 2.1 1.3 0.1 -0.7 -0.4 0.3 1.3 2.4 3.2 3.1 3.9 4.1 4.0 3.5 3.1 2.5 3.1
6.5 6.5 6.5 6.5 6.5 6.5 6.5 6.5 6.5 6.5 6.5 6.5 6.5 6.5 6.5 6.5 6.5 6.5 6.1 5.4 5.0 5.0 5.0 5.0 5.0 4.0 3.2 2.5 1.5 0.4 -0.5 -0.3 0.3 1.3 1.7 2.8 3.7 4.7 3.9 3.8 3.9 3.8 3.3 4.4
6.5 6.5 6.5 6.5 6.5 6.5 6.5 6.5 6.5 6.5 6.5 6.5 6.5 6.5 6.5 6.5 6.4 5.8 6.0 5.9 5.5 5.2 5.3 5.3 4.9 3.3 3.6 2.8 1.5 0.7 0.5 0.6 1.6 1.9 2.4 3.9 4.7 4.5 3.5 3.4 3.8 3.5 3.6 3.8
6.5 6.5 6.5 6.5 6.5 6.5 6.5 6.5 6.5 6.5 6.5 6.5 6.5 6.5 6.5 6.5 6.5 6.1 5.7 5.6 5.6 5.7 5.6 5.2 3.9 2.0 2.9 2.6 1.9 1.6 1.7 1.3 2.0 2.4 3.2 5.0 5.1 4.0 3.2 3.0 3.3 3.4 3.8 3.6
5.8 6.5 6.5 6.5 6.5 6.5 6.5 6.5 6.5 6.5 6.5 6.5 6.5 6.5 6.5 6.5 6.5 6.5 5.9 5.4 5.6 5.7 5.5 5.4 3.4 1.2 1.8 2.2 2.1 2.2 1.9 1.9 2.1 2.8 3.6 4.2 4.8 4.2 3.5 3.3 2.7 3.1 3.7 3.7
6.5 6.5 6.5 6.5 6.5 6.5 6.5 6.5 6.5 6.5 6.5 6.5 6.5 6.5 6.5 6.5 6.5 6.4 5.5 5.9 6.4 6.3 6.1 6.0 4.0 1.4 0.7 1.2 1.4 1.8 2.0 2.3 2.4 3.5 3.7 3.7 4.2 4.3 3.6 3.1 2.5 2.4 3.2 3.2
6.5 6.5 6.5 6.5 6.5 6.5 6.5 6.5 6.5 6.5 6.5 6.5 6.5 6.5 6.5 6.4 6.3 6.2 6.5 6.7 6.7 6.5 6.4 6.3 5.1 3.9 2.6 2.3 2.8 2.7 2.4 2.4 2.9 3.6 4.2 4.4 4.5 4.3 4.3 3.3 3.1 2.2 2.6 2.5
6.5 6.5 6.5 6.5 6.5 6.5 6.5 6.5 6.5 6.5 6.5 6.5 6.5 6.5 6.5 6.5 6.5 6.5 6.2 6.2 6.5 6.7 6.4 5.9 5.0 4.3 4.1 3.2 3.3 2.7 3.3 3.4 3.5 4.3 5.4 5.4 5.3 4.9 4.4 3.4 3.1 2.5 2.3 2.5
6.5 6.5 6.5 6.5 6.5 6.5 6.5 6.5 6.5 6.5 6.5 6.5 6.5 6.5 6.5 6.4 6.2 5.2 5.6 5.6 6.5 6.4 6.2 5.5 4.7 3.9 3.1 2.9 3.1 3.7 4.2 3.7 3.6 5.0 5.8 6.1 6.5 6.4 4.8 3.3 2.6 2.8 2.8 3.1
6.5 6.5 6.5 6.5 6.5 6.5 6.5 6.5 6.5 6.5 6.5 6.5 6.5 6.5 6.6 6.9 6.3 5.9 6.1 5.7 5.6 5.7 5.4 4.7 4.2 3.9 3.4 3.1 3.5 4.1 3.6 3.6 4.7 5.6 5.8 6.5 6.7 7.1 5.7 4.0 3.1 3.4 3.5 3.2
6.5 6.5 6.5 6.5 6.5 6.5 6.5 6.5 6.2 6.5 6.5 6.5 6.4 6.5 6.5 6.5 6.5 6.5 5.6 5.4 5.6 5.8 5.6 5.3 4.8 4.1 3.4 3.6 4.1 4.0 3.3 4.2 4.6 5.5 6.0 6.5 6.4 7.0 6.4 4.9 3.9 4.4 4.5 4.9
6.5 6.5 6.5 6.5 6.5 6.5 6.5 6.4 6.2 6.5 6.5 6.2 6.4 6.7 6.6 6.5 5.5 5.4 5.4 5.5 5.6 5.5 5.5 5.3 4.4 3.2 3.5 3.7 4.3 3.8 3.6 4.5 5.5 6.1 6.1 6.2 6.5 6.7 6.9 5.0 4.6 5.1 4.5 4.8
6.5 6.5 6.5 6.5 6.5 6.5 6.3 6.4 6.5 6.4 6.2 6.5 6.4 6.2 5.4 5.3 5.8 5.5 5.3 5.4 4.9 4.2 3.8 3.5 3.4 3.4 3.6 3.9 4.3 3.7 4.1 5.1 5.9 5.9 6.1 5.9 6.2 7.0 6.9 5.6 5.6 5.7 5.2 5.7
6.5 6.5 6.5 6.5 6.5 6.3 5.7 5.8 5.7 6.0 6.4 6.5 5.7 6.3 5.3 5.5 5.3 5.0 4.9 4.4 4.1 3.8 3.5 3.8 3.3 3.5 3.9 4.3 4.4 3.9 4.7 5.7 6.4 6.3 5.9 5.7 6.4 6.4 6.6 6.0 6.2 5.8 5.9 6.6
6.5 6.3 6.5 6.5 6.5 6.5 6.7 7.0 6.6 6.0 5.6 6.3 5.6 5.4 4.7 4.3 4.7 4.5 4.5 4.1 3.5 3.7 3.5 3.8 3.5 3.8 4.5 4.4 4.7 4.6 5.5 5.8 5.7 6.3 5.8 6.2 6.5 6.5 6.2 6.6 5.8 5.8 6.1 7.0
6.3 6.3 6.5 6.5 6.5 6.5 6.8 7.0 6.4 6.0 5.7 6.0 5.9 5.3 4.2 3.9 4.5 3.9 3.9 3.9 3.9 4.0 3.8 4.0 4.4 5.0 4.7 4.7 4.7 4.6 5.5 5.8 5.7 5.9 6.1 6.3 6.5 6.5 6.3 6.4 6.3 5.9 5.5 6.7
5.8 6.5 6.5 6.5 6.2 6.4 6.6 6.7 5.1 5.0 6.5 5.4 4.8 5.0 4.9 3.6 3.3 3.3 3.2 3.8 3.6 4.1 4.7 4.5 4.5 4.6 4.3 4.4 4.5 4.7 4.8 5.4 5.7 6.1 6.1 6.1 6.4 6.4 6.5 6.1 5.1 6.6 6.2 6.1
Wind_Speed
3 0 7 10 7 3 1 3 4 5 6 4 8 5 4 6 11 11 8 8 7 6 3 4 4 4 6 8 9 7 9 10 8 8 9 8 9 10 8 9 15 16 14 16
1 8 11 6 4 5 5 6 8 7 5 4 3 9 5 3 5 9 10 7 6 5 3 3 5 6 7 7 7 8 10 10 8 6 7 5 9 5 9 9 12 18 18 17
10 10 6 3 6 7 6 6 5 6 2 2 2 6 6 3 7 7 5 5 5 5 3 4 5 6 6 12 10 11 9 10 9 10 8 8 8 7 7 9 10 11 19 19
7 11 14 14 8 6 9 7 7 5 4 4 2 5 6 6 7 6 6 6 6 5 4 6 7 7 7 7 6 7 10 8 10 10 9 12 10 12 10 11 11 14 18 15
9 5 7 13 13 7 8 6 6 3 4 3 2 2 4 8 6 7 7 5 4 4 6 6 5 5 5 6 8 9 10 9 8 9 10 9 12 11 11 11 16 16 14 15
7 3 6 8 2 8 6 4 6 4 2 5 7 6 5 7 9 11 6 6 6 5 6 5 5 6 6 7 7 7 8 8 9 9 11 14 15 16 14 15 13 12 12 12
4 15 4 3 2 4 4 6 1 3 1 7 6 8 15 1 10 14 11 7 6 6 5 5 6 7 7 8 8 7 8 10 10 12 14 15 14 16 16 16 12 17 15 12
10 7 14 8 19 7 8 9 6 6 4 4 3 7 5 3 7 10 9 7 6 5 5 4 4 5 6 8 8 8 9 11 12 13 15 13 14 11 12 14 14 13 13 14
6 7 4 6 5 16 7 9 6 5 1 1 4 2 1 3 6 8 7 6 5 4 4 5 5 5 6 7 8 8 9 10 12 13 12 13 14 15 15 18 16 13 16 14
5 5 2 1 5 3 8 9 3 1 5 7 5 5 4 10 10 7 7 6 5 5 4 3 4 5 4 6 7 8 7 8 10 11 11 12 14 15 16 16 17 18 18 20
14 3 2 3 4 9 3 3 2 4 5 4 2 5 4 15 13 12 7 6 6 5 5 2 2 3 5 6 7 7 8 10 12 12 13 14 13 16 15 15 15 16 18 18
6 1 13 6 3 3 1 6 6 4 5 4 3 8 5 9 10 8 7 6 5 6 5 3 2 4 5 6 7 8 8 9 11 11 13 15 15 15 16 16 17 17 18 18
7 5 7 3 4 4 2 3 2 4 2 5 4 4 3 5 6 6 7 7 6 6 4 3 5 4 5 6 8 8 8 9 11 12 13 14 16 15 17 17 17 17 17 19
3 4 11 15 3 4 5 5 4 5 2 6 10 4 6 9 9 7 6 7 6 5 5 4 4 4 5 5 6 8 9 10 11 12 13 14 17 16 16 17 17 17 16 17
4 4 6 3 6 6 6 5 6 7 14 8 22 16 14 17 16 12 7 6 5 5 4 1 2 3 4 5 6 7 8 11 11 13 13 14 15 16 16 17 17 16 16 15
4 5 3 7 3 6 6 8 9 11 14 13 19 25 3 12 8 10 10 8 6 5 4 2 4 2 5 6 8 9 10 11 11 12 14 13 15 18 16 16 17 16 16 16
3 4 5 7 6 2 4 21 13 9 10 15 17 8 7 6 11 11 9 7 6 7 5 3 4 3 4 6 8 9 10 11 11 11 13 14 15 15 16 17 16 17 17 16
6 4 3 2 3 7 7 6 16 21 23 19 7 6 16 11 8 11 6 5 7 7 5 4 3 4 6 6 7 7 8 9 10 13 12 14 14 14 16 16 17 17 15 15
11 6 3 3 6 6 7 3 6 8 9 12 7 10 13 15 11 6 4 5 8 7 5 4 4 4 5 6 6 8 8 9 11 12 13 15 14 14 14 16 16 16 15 15
8 5 6 3 4 6 4 5 4 5 8 4 9 15 18 14 6 4 9 12 10 7 5 4 4 3 5 6 5 8 9 11 12 13 13 12 12 13 13 14 14 15 14 14
3 2 9 4 4 6 6 7 1 6 5 4 11 13 15 5 2 12 14 12 9 7 7 6 5 5 6 7 7 8 9 12 13 13 12 12 12 12 12 12 12 13 15 14
7 7 4 2 4 8 1 1 6 5 7 10 13 12 14 13 14 14 13 11 9 8 8 8 5 5 6 7 7 8 10 12 13 12 11 11 12 11 10 10 13 14 14 14
4 6 6 7 5 2 3 1 7 7 14 7 14 13 15 14 13 11 10 10 9 8 6 5 5 6 6 7 7 9 11 12 12 11 11 11 13 10 10 10 11 10 12 12
3 3 3 5 2 3 10 12 12 11 15 14 15 14 14 14 11 11 9 7 7 6 6 6 6 6 7 8 9 9 11 11 10 10 11 11 11 12 10 8 8 8 10 11
5 6 6 4 8 11 8 12 16 17 17 14 13 12 14 14 10 10 9 8 7 7 5 6 5 6 7 8 8 8 11 11 10 10 10 10 9 9 9 7 8 8 9 13
4 6 6 5 11 7 10 13 17 17 14 13 15 13 12 13 12 12 9 7 6 6 5 6 7 7 7 7 8 9 11 11 10 9 8 8 8 8 8 8 6 17 18 22
Wind_Direction
327 25 225 219 208 163 34 244 256 266 274 207 227 225 201 104 120 133 139 142 143 132 145 105 83 47 39 30 22 13 355 354 348 342 344 344 335 329 319 316 309 302 298 300
42 258 255 212 225 232 238 266 270 277 261 203 218 251 101 185 144 150 150 145 153 128 98 78 50 34 37 16 12 4 5 354 331 338 330 313 316 307 310 309 314 310 303 300
193 215 35 198 257 253 229 213 243 210 307 5 112 301 251 50 105 114 121 127 114 121 112 49 42 31 15 14 4 359 350 343 324 335 324 322 321 321 321 321 317 311 303 298
231 229 234 259 252 210 255 215 223 165 113 215 97 263 271 161 142 147 147 141 141 118 75 55 31 23 8 353 334 339 351 324 331 326 321 333 326 324 323 314 311 310 303 294
227 206 193 225 234 177 240 185 173 137 134 113 265 292 236 134 174 186 181 166 143 119 93 81 50 22 344 352 353 345 326 316 316 321 325 326 334 320 318 318 316 310 303 295
218 229 159 198 160 195 131 83 47 47 94 257 188 189 215 191 188 173 168 162 155 105 79 71 45 10 352 347 352 339 304 311 316 325 332 342 336 325 321 321 317 311 309 303
216 243 248 171 132 59 127 123 269 292 231 240 218 204 256 299 176 169 162 161 141 101 84 52 33 4 352 348 342 313 322 319 329 337 344 343 332 319 322 316 317 316 314 311
206 269 206 197 209 168 189 165 171 210 213 265 132 229 275 76 86 107 121 138 123 103 108 68 33 360 342 336 309 314 323 332 339 342 340 335 327 326 321 319 315 312 306 305
186 256 236 209 174 168 194 205 172 115 273 62 233 282 278 123 102 119 133 130 133 107 106 70 14 356 340 303 307 302 324 334 342 334 333 325 333 331 325 319 315 314 311 310
224 274 240 220 113 37 173 153 95 331 194 236 252 258 245 184 175 160 158 158 143 106 106 68 4 330 296 308 300 307 322 336 333 330 326 327 333 331 325 319 318 317 312 314
220 201 234 113 224 167 146 175 129 144 160 191 256 253 336 192 181 165 165 161 158 143 137 128 266 339 330 307 302 314 336 343 338 333 333 333 332 330 326 319 319 317 315 313
200 160 248 212 260 227 174 179 153 150 196 222 158 265 344 151 148 147 160 149 149 142 149 137 25 31 340 314 324 338 333 342 338 333 330 334 330 328 329 324 323 322 320 316
196 206 229 240 314 340 153 170 185 105 59 206 176 248 89 113 131 162 156 152 149 145 118 73 20 5 329 337 327 329 327 338 337 335 328 330 334 333 331 326 325 324 323 321
350 177 205 225 202 137 163 164 142 104 159 267 254 274 183 196 181 180 173 156 143 127 88 41 1 346 313 315 314 324 340 343 338 333 334 331 335 334 332 328 328 327 326 321
75 347 317 266 168 155 161 210 180 185 243 233 263 263 255 198 194 182 157 159 134 116 108 42 356 282 290 305 327 338 348 340 338 332 329 333 332 334 332 332 330 329 328 327
199 212 319 301 211 204 208 228 209 225 206 239 244 249 200 190 140 156 158 148 139 130 142 74 90 332 346 342 348 345 346 338 335 330 331 335 333 339 335 334 333 332 331 332
216 194 178 235 215 215 276 237 238 245 233 220 231 220 136 162 170 158 146 135 142 135 108 86 92 29 5 353 351 347 339 332 331 329 334 340 334 335 336 336 337 338 336 334
171 232 172 163 75 241 234 185 213 224 236 230 238 157 180 176 132 116 108 130 127 121 103 91 81 30 6 358 350 327 330 331 334 342 339 341 333 336 339 340 341 339 338 338
208 193 186 181 202 309 297 240 173 186 264 226 195 124 118 112 89 50 105 104 107 105 104 108 88 46 7 2 335 327 332 340 347 342 338 343 335 337 343 341 341 338 338 338
183 205 192 138 215 225 244 280 312 145 261 186 149 152 145 137 156 166 114 107 97 93 86 88 91 46 20 347 329 337 341 348 345 339 332 335 339 337 345 339 338 337 338 338
117 128 206 177 219 280 245 272 185 184 239 117 145 149 143 111 129 122 111 98 99 96 86 77 62 39 6 354 335 345 345 349 339 332 329 332 338 340 345 337 344 342 342 342
172 156 179 167 200 257 238 93 178 165 60 106 114 118 103 109 109 108 105 106 95 81 62 53 43 25 1 345 348 345 348 340 337 329 329 333 342 350 345 344 349 352 346 349
201 179 173 185 210 270 328 131 107 119 119 113 108 112 117 115 111 110 103 92 78 69 64 43 40 19 356 347 353 346 347 344 337 330 335 340 351 352 355 1 356 355 353 357
209 166 130 123 200 115 115 97 96 99 105 113 112 116 115 116 116 106 103 94 82 69 63 35 34 16 357 350 351 349 349 338 338 343 343 348 353 358 1 9 0 360 359 2
200 147 125 76 103 85 77 108 114 102 98 102 102 112 116 113 111 114 98 86 79 72 48 40 28 18 360 345 347 347 342 343 350 352 349 352 352 350 358 11 9 8 4 11
191 173 170 189 170 122 133 122 114 117 126 123 116 103 101 111 108 99 89 85 82 73 56 44 32 22 0 353 348 348 347 352 351 357 357 357 352 354 360 358 4 12 16 16